Regional Weather Roundup
Issued by NWS Upton, NY

Home | Current Version | Previous Version | Text Only | Print | Product List | Glossary On
Versions: 1 2 3 4 5 6 7 8 9 10 11 12 13 14 15 16 17 18 19 20 21 22 23 24 25 26 27 28 29 30 31 32 33 34 35 36 37 38 39 40 41 42 43 44 45 46 47 48 49 50
000
ASUS41 KOKX 220805
RWROKX

REGIONAL WEATHER ROUNDUP
NATIONAL WEATHER SERVICE NEW YORK NY
400 AM EDT FRI AUG 22 2014

NOTE: "FAIR" INDICATES FEW OR NO CLOUDS BELOW 12,000 FEET WITH NO
SIGNIFICANT WEATHER AND/OR OBSTRUCTIONS TO VISIBILITY.

NYZ071-072-176-178-NJZ106-104-220900-
NEW YORK CITY METRO AREA


CITY           SKY/WX    TMP DP  RH WIND       PRES   REMARKS
CENTRAL PARK   CLOUDY    67  64  90 CALM      30.04F FOG
LAGUARDIA APRT CLOUDY    68  64  87 S7        30.00F
KENNEDY INTL   CLOUDY    69  66  90 E5        30.02F
NEWARK/LIBERTY LGT RAIN  67  63  87 CALM      30.01F
BRNX BOT. GARD   N/A     66  64  94 S5        30.02F
TETERBORO      CLOUDY    69  64  84 CALM      30.00R
$$

NYZ177-179-078>081-220900-
LONG ISLAND NEW YORK

CITY           SKY/WX    TMP DP  RH WIND       PRES   REMARKS
FARMINGDALE    CLOUDY    67  64  90 SE3       30.02S
ISLIP          CLOUDY    67  64  90 E6        30.01F
SHIRLEY        LGT RAIN  66  64  93 VRB3      30.04S
WESTHAMPTON    LGT RAIN  66  62  87 E3        30.06R
MONTAUK POINT    N/A     67  61  81 CALM      30.06S
$$

NYZ052-065-067-220900-
HUDSON VALLEY

CITY           SKY/WX    TMP DP  RH WIND       PRES   REMARKS
WHITE PLAINS   CLOUDY    67  64  90 E3        30.02F
NEWBURGH       MOCLDY    66  64  94 CALM      30.04R
MONTGOMERY     CLOUDY    64  63  96 CALM      30.02S
POUGHKEEPSIE   CLOUDY    68  63  84 SE3       30.01S
ALBANY         LGT RAIN  67  64  90 E5        30.01F
$$

NJZ001-105-106-008-010-013-015-019>022-104-220900-
NEW JERSEY

CITY           SKY/WX    TMP DP  RH WIND       PRES   REMARKS
NEWARK/LIBERTY LGT RAIN  67  63  87 CALM      30.01F
TETERBORO      CLOUDY    69  64  84 CALM      30.00R
CALDWELL       CLOUDY    65  62  90 CALM      30.02S
MORRISTOWN     CLOUDY    66  63  88 CALM      30.02S FOG
SOMERVILLE     LGT RAIN  67  64  90 CALM      30.00R
LINDEN         FAIR      71  67  89 CALM      30.03S
SUSSEX         LGT RAIN  67  64  90 CALM        N/A  FOG
ANDOVER          N/A     65  64  97 CALM      30.02F
TRENTON        LGT RAIN  67  65  93 E5        29.99S
MILLVILLE      CLOUDY    69  67  93 NE7       29.97R
ATLANTIC CITY  CLOUDY    68  67  96 NE13      29.98R
WRIGHTSTOWN    CLOUDY    66  66 100 VRB2      29.98R
TOMS RIVER     CLOUDY    66  64  94 S6        30.00S
BELMAR         CLOUDY    66  61  82 N7        30.00S
$$

PAZ047>061-062-071-220900-
EASTERN PENNSYLVANIA

CITY           SKY/WX    TMP DP  RH WIND       PRES   REMARKS
PHILADELPHIA   CLOUDY    70  67  90 E9        29.99S
ALLENTOWN      PTCLDY    67  64  90 CALM      30.00F
SCRANTON       CLOUDY    69  65  86 CALM      30.00S
$$

CTZ002-004>006-009-010-012-RIZ004-006-007-MAZ004-011-015-220900-
SOUTHERN NEW ENGLAND
 IN CT

CITY           SKY/WX    TMP DP  RH WIND       PRES   REMARKS
BRADLEY INTL   LGT RAIN  66  63  90 NE5       30.05S
HARTFORD       CLOUDY    67  63  87 CALM      30.05R
DANBURY        CLOUDY    66  63  90 CALM      30.05S
WTRBRY/OXFORD  CLOUDY    64  61  88 E5        30.06F
BRIDGEPORT     LGT RAIN  68  64  87 E6        30.03F
MERIDEN        LGT RAIN  66  61  84 CALM      30.05S
NEW HAVEN      CLOUDY    69  63  81 NE3       30.04S
CHESTER        HVY RAIN  64  64 100 CALM      30.07S
GROTON         LGT RAIN  65  62  90 NE6       30.05R
WILLIMANTIC    CLOUDY    67  59  75 CALM      30.07R

 IN RI

CITY           SKY/WX    TMP DP  RH WIND       PRES   REMARKS
PROVIDENCE     LGT RAIN  65  62  90 NE6       30.07S
BLOCK ISLAND   CLOUDY    66  61  82 E5        30.05S
WESTERLY       CLOUDY    66  62  87 NE3       30.06S

 IN MA

CITY           SKY/WX    TMP DP  RH WIND       PRES   REMARKS
BOSTON         RAIN      64  61  90 N7        30.07S
WORCESTER      FOG       59  59 100 E3        30.10R VSB 3/4
WESTFIELD      CLOUDY    65  63  93 N3        30.06S
PROVINCETOWN   CLOUDY    64  63  94 MISG      30.06S
NANTUCKET      FOG       59  59 100 N6        30.03S VSB 3/4
$$

ANZ330-335-338-340-345-350-353-355-220900-
COASTAL MARINE OBSERVATIONS


STATION/POSITION TIME  SKY/WX   TEMP    WIND        PRES    VSBY  WAVE
                                AIR SEA DIR/SP/G                  HT/PER
                 (UTC)          (F)     (DEG/KT/KT) (MB)    (MI)  (FT/S)
NY HARB ENTRANCE NOT AVBL
4S FIRE IS       NOT AVBL
23SW MTP         0800            68 69              1016.8          3/ 7
HUDSON CANYON    0800            71 73   70/  6/  8 1015.7          3/ 7
EXECUTION ROCKS  0800            69 73  140/  8/  8   N/A
WESTERN LI SOUND 0800            71     140/  8/ 10   N/A           1
CENTRAL LI SOUND 0700            70 73  130/  6/  8   N/A           0
EASTERN LI SOUND 0700            68 69   80/  4/  6   N/A
ROBBINS REEF     0800            67     120/  5/  6   N/A
$$


>>>>>>>>>>>>>>>>>>>>>>>>>>>> KEY <<<<<<<<<<<<<<<<<<<<<<<<<<<
>                                                          <
>     SKY/WX - SKY CONDITION/PRESENT WEATHER               <
>     TMP    - TEMPERATURE IN FAHRENHEIT                   <
>     DP     - DEWPOINT IN FAHRENHEIT                      <
>     RH     - RELATIVE HUMIDITY IN PERCENT                <
>     WIND   - DIRECTION AND SPEED IN MPH                  <
>     PRES   - MEAN SEA LEVEL PRESSURE IN INCHES OF HG     <
>     WCI    - WIND CHILL INDEX                            <
>     VSB    - VISIBILITY IN MILES                         <
>     HX     - HEAT INDEX                                  <
>     TC     - TEMPERATURE IN CELSIUS                      <
>     VRB    - VARIABLE WIND DIRECTION                     <
>                                                          <
>>>>>>>>>>>>>>>>>>>>>>>>>>>> KEY <<<<<<<<<<<<<<<<<<<<<<<<<<<





USA.gov is the U.S. government's official web portal to all federal, state and local government web resources and services.